FW4569 Weather Reports


Display with metric or nautical units.
time (UTC)temp
F
wind
direction
speed
MPH
gust
MPH
rain 1hr
in
rain 24hr
in
rain mn
in
humidity
%
barometer
mb
20210625033056 69 355 2.0 6.0 0.00 0.00 0.00 46 1018.3
20210625032555 71 355 2.0 6.0 0.00 0.00 0.00 44 1018.2
20210625032056 72 219 2.0 3.0 0.00 0.00 0.00 43 1018.2
20210625031556 71 219 2.0 4.0 0.00 0.00 0.00 43 1018.2
20210625031056 72 214 3.0 4.0 0.00 0.00 0.00 43 1018.2
20210625030556 72 213 3.0 4.0 0.00 0.00 0.00 43 1018.2
20210625030055 72 213 3.0 4.0 0.00 0.00 0.00 42 1018.1
20210625025558 71 213 3.0 4.0 0.00 0.00 0.00 43 1018.2
20210625025052 71 213 3.0 5.0 0.00 0.00 0.00 44 1018.2
20210625024552 70 213 3.0 5.0 0.00 0.00 0.00 44 1018.1
20210625024052 70 208 3.0 5.0 0.00 0.00 0.00 44 1018.2
20210625023554 70 198 2.0 6.0 0.00 0.00 0.00 44 1018.1
20210625023051 71 147 1.0 6.0 0.00 0.00 0.00 43 1018.3
20210625022552 73 130 4.0 7.0 0.00 0.00 0.00 42 1018.4
20210625022053 73 123 5.0 8.0 0.00 0.00 0.00 41 1018.1
20210625021553 73 121 5.0 8.0 0.00 0.00 0.00 42 1018.3
20210625021054 73 118 4.0 7.0 0.00 0.00 0.00 42 1018.2
20210625020546 73 120 4.0 6.0 0.00 0.00 0.00 42 1018.2
20210625020049 73 119 4.0 6.0 0.00 0.00 0.00 41 1018.5
20210625015547 74 118 4.0 7.0 0.00 0.00 0.00 41 1018.3
20210625015047 75 107 4.0 7.0 0.00 0.00 0.00 40 1018.4
20210625014549 75 103 4.0 7.0 0.00 0.00 0.00 40 1018.4
20210625014048 75 101 4.0 7.0 0.00 0.00 0.00 39 1018.4
20210625013547 76 101 4.0 6.0 0.00 0.00 0.00 39 1018.5
20210625013048 76 92 4.0 6.0 0.00 0.00 0.00 39 1018.6
20210625012550 76 84 4.0 6.0 0.00 0.00 0.00 39 1018.6
20210625012043 76 105 3.0 6.0 0.00 0.00 0.00 39 1018.5
20210625011542 76 110 2.0 4.0 0.00 0.00 0.00 39 1018.5
20210625011040 76 116 2.0 3.0 0.00 0.00 0.00 39 1018.4
20210625010538 77 117 2.0 3.0 0.00 0.00 0.00 39 1018.5
20210625010039 77 117 2.0 4.0 0.00 0.00 0.00 39 1018.5
20210625005542 77 117 3.0 4.0 0.00 0.00 0.00 40 1018.6
20210625005043 77 117 3.0 4.0 0.00 0.00 0.00 41 1018.6
20210625004541 76 119 3.0 6.0 0.00 0.00 0.00 42 1018.6
20210625004037 76 119 3.0 6.0 0.00 0.00 0.00 42 1018.6
20210625003533 76 119 4.0 7.0 0.00 0.00 0.00 42 1018.8
20210625003033 75 119 4.0 8.0 0.00 0.00 0.00 41 1018.8
20210625002530 75 125 5.0 8.0 0.00 0.00 0.00 40 1018.8
20210625002030 75 123 6.0 10.0 0.00 0.00 0.00 40 1018.8
20210625001530 76 120 6.0 10.0 0.00 0.00 0.00 39 1018.9
20210625001026 76 116 6.0 8.0 0.00 0.00 0.00 40 1018.8
20210625000526 76 101 6.0 8.0 0.00 0.00 0.00 40 1018.8
20210625000023 77 91 6.0 9.0 0.00 0.00 0.00 40 1018.8
20210624235522 77 99 6.0 9.0 0.00 0.00 0.00 40 1018.8
20210624235019 77 111 5.0 8.0 0.00 0.00 0.00 40 1019.0
20210624234520 76 108 5.0 8.0 0.00 0.00 0.00 39 1018.9
20210624234020 76 102 6.0 8.0 0.00 0.00 0.00 39 1019.0
20210624233517 76 97 6.0 8.0 0.00 0.00 0.00 40 1018.8
20210624233017 76 90 6.0 8.0 0.00 0.00 0.00 39 1019.0
20210624232515 76 92 7.0 9.0 0.00 0.00 0.00 38 1018.8
20210624232008 77 96 7.0 9.0 0.00 0.00 0.00 37 1018.8
20210624231510 77 96 6.0 9.0 0.00 0.00 0.00 37 1018.9
20210624231008 77 95 5.0 8.0 0.00 0.00 0.00 38 1018.9
20210624230508 77 94 4.0 7.0 0.00 0.00 0.00 37 1018.9
20210624230007 77 78 5.0 7.0 0.00 0.00 0.00 36 1018.9
20210624225502 78 85 4.0 7.0 0.00 0.00 0.00 35 1018.9
20210624225003 80 76 2.0 5.0 0.00 0.00 0.00 35 1019.0
20210624224504 80 355 2.0 3.0 0.00 0.00 0.00 34 1018.8
20210624224003 80 355 2.0 3.0 0.00 0.00 0.00 34 1018.8
20210624223459 80 355 2.0 3.0 0.00 0.00 0.00 33 1018.9
20210624222957 80 355 2.0 3.0 0.00 0.00 0.00 35 1018.7
20210624222456 80 355 1.0 3.0 0.00 0.00 0.00 35 1018.7
20210624221959 80 355 1.0 3.0 0.00 0.00 0.00 35 1018.9
20210624221457 81 355 0.0 3.0 0.00 0.00 0.00 35 1018.7
20210624220957 81 355 1.0 2.0 0.00 0.00 0.00 35 1018.8
20210624220452 81 355 1.0 3.0 0.00 0.00 0.00 35 1018.7
20210624215954 81 355 0.0 3.0 0.00 0.00 0.00 34 1018.7
20210624215453 81 355 0.0 0.0 0.00 0.00 0.00 35 1018.7
20210624214953 81 355 0.0 0.0 0.00 0.00 0.00 34 1018.7
20210624214450 81 355 0.0 0.0 0.00 0.00 0.00 34 1018.7
20210624213950 81 355 0.0 0.0 0.00 0.00 0.00 34 1018.6
20210624213447 82 355 1.0 3.0 0.00 0.00 0.00 34 1018.6
20210624212945 82 355 2.0 3.0 0.00 0.00 0.00 34 1018.6
20210624212444 82 355 2.0 3.0 0.00 0.00 0.00 34 1018.7
20210624211943 82 355 2.0 3.0 0.00 0.00 0.00 34 1018.7
20210624211440 82 355 2.0 4.0 0.00 0.00 0.00 34 1018.6
20210624210943 82 355 2.0 4.0 0.00 0.00 0.00 34 1018.6
20210624210439 82 355 2.0 4.0 0.00 0.00 0.00 33 1018.5
20210624205939 82 355 2.0 4.0 0.00 0.00 0.00 33 1018.6
20210624205440 82 355 2.0 4.0 0.00 0.00 0.00 32 1018.4
20210624204933 82 355 2.0 4.0 0.00 0.00 0.00 32 1018.5
20210624204433 82 355 2.0 3.0 0.00 0.00 0.00 31 1018.4
20210624203932 82 355 2.0 3.0 0.00 0.00 0.00 31 1018.3
20210624203432 83 355 3.0 4.0 0.00 0.00 0.00 30 1018.3
20210624202935 83 355 3.0 5.0 0.00 0.00 0.00 30 1018.1
20210624202431 83 355 3.0 5.0 0.00 0.00 0.00 30 1018.1
20210624201932 83 350 3.0 5.0 0.00 0.00 0.00 30 1018.1
20210624201432 83 355 3.0 5.0 0.00 0.00 0.00 30 1018.1
20210624200932 83 350 2.0 5.0 0.00 0.00 0.00 29 1017.9
20210624200437 84 355 2.0 5.0 0.00 0.00 0.00 28 1017.9
20210624195932 84 350 3.0 5.0 0.00 0.00 0.00 28 1017.9
20210624195432 84 351 3.0 5.0 0.00 0.00 0.00 27 1017.7
20210624194932 85 0 2.0 5.0 0.00 0.00 0.00 27 1017.8
20210624194431 86 339 2.0 5.0 0.00 0.00 0.00 27 1017.7
20210624193931 86 342 2.0 5.0 0.00 0.00 0.00 26 1017.8
20210624193428 86 344 2.0 5.0 0.00 0.00 0.00 26 1017.7
20210624192931 87 333 2.0 6.0 0.00 0.00 0.00 26 1017.7
20210624192424 87 291 3.0 8.0 0.00 0.00 0.00 26 1017.7
20210624191926 87 344 4.0 10.0 0.00 0.00 0.00 25 1017.8
20210624191425 87 338 4.0 10.0 0.00 0.00 0.00 25 1017.6
20210624190925 87 334 4.0 10.0 0.00 0.00 0.00 25 1017.6
20210624190427 88 319 4.0 9.0 0.00 0.00 0.00 25 1017.6
20210624185925 88 340 4.0 10.0 0.00 0.00 0.00 24 1017.6
20210624185425 88 348 5.0 11.0 0.00 0.00 0.00 24 1017.6
20210624184924 88 0 5.0 11.0 0.00 0.00 0.00 24 1017.5
20210624184422 89 338 5.0 11.0 0.00 0.00 0.00 24 1017.6
20210624183923 89 10 5.0 11.0 0.00 0.00 0.00 23 1017.5
20210624183417 89 348 5.0 11.0 0.00 0.00 0.00 23 1017.5
20210624182920 89 332 5.0 10.0 0.00 0.00 0.00 23 1017.5
20210624182419 89 30 5.0 12.0 0.00 0.00 0.00 23 1017.5
20210624181917 89 302 7.0 12.0 0.00 0.00 0.00 23 1017.4
20210624181416 89 29 6.0 12.0 0.00 0.00 0.00 22 1017.4
20210624180919 89 26 7.0 15.0 0.00 0.00 0.00 22 1017.3
20210624180417 90 316 8.0 15.0 0.00 0.00 0.00 22 1017.5
20210624175919 90 355 6.0 13.0 0.00 0.00 0.00 22 1017.4
20210624175418 90 355 5.0 12.0 0.00 0.00 0.00 22 1017.3
20210624174917 90 34 5.0 11.0 0.00 0.00 0.00 23 1017.3
20210624174417 90 347 4.0 11.0 0.00 0.00 0.00 23 1017.2
20210624173918 90 285 5.0 13.0 0.00 0.00 0.00 23 1017.2
20210624173416 90 332 7.0 13.0 0.00 0.00 0.00 23 1017.3
20210624172920 89 24 7.0 12.0 0.00 0.00 0.00 23 1017.2
20210624172418 90 28 7.0 16.0 0.00 0.00 0.00 23 1017.3
20210624171917 89 15 6.0 16.0 0.00 0.00 0.00 22 1017.3
20210624171419 90 327 6.0 14.0 0.00 0.00 0.00 22 1017.4
20210624170915 90 319 6.0 17.0 0.00 0.00 0.00 23 1017.4
20210624170415 90 330 8.0 17.0 0.00 0.00 0.00 23 1017.4
20210624165914 89 310 8.0 15.0 0.00 0.00 0.00 23 1017.5
20210624165413 90 331 6.0 14.0 0.00 0.00 0.00 23 1017.3
20210624164912 91 39 5.0 13.0 0.00 0.00 0.00 23 1017.3
20210624164412 90 279 5.0 11.0 0.00 0.00 0.00 23 1017.5
20210624163909 91 30 5.0 18.0 0.00 0.00 0.00 23 1017.5
20210624163412 91 311 5.0 18.0 0.00 0.00 0.00 23 1017.5
20210624162910 91 345 4.0 11.0 0.00 0.00 0.00 23 1017.4
20210624162412 90 77 5.0 12.0 0.00 0.00 0.00 24 1017.5
20210624161904 91 194 4.0 12.0 0.00 0.00 0.00 23 1017.4
20210624161406 91 355 4.0 12.0 0.00 0.00 0.00 25 1017.4
20210624160905 91 15 6.0 12.0 0.00 0.00 0.00 24 1017.6
20210624160404 91 15 7.0 14.0 0.00 0.00 0.00 24 1017.6
20210624155907 91 319 5.0 14.0 0.00 0.00 0.00 25 1017.5
20210624155404 92 318 3.0 8.0 0.00 0.00 0.00 25 1017.7
20210624154905 91 296 2.0 7.0 0.00 0.00 0.00 26 1017.6
20210624154404 90 28 4.0 15.0 0.00 0.00 0.00 26 1017.8
20210624153905 91 36 5.0 15.0 0.00 0.00 0.00 25 1017.8
20210624153406 92 5 4.0 13.0 0.00 0.00 0.00 25 1017.7
20210624152905 91 334 6.0 14.0 0.00 0.00 0.00 25 1017.8
20210624152403 92 316 5.0 14.0 0.00 0.00 0.00 25 1017.7
20210624151905 91 326 4.0 10.0 0.00 0.00 0.00 25 1017.8
20210624151403 91 18 3.0 12.0 0.00 0.00 0.00 25 1017.7
20210624150903 91 21 2.0 12.0 0.00 0.00 0.00 25 1017.8
20210624150405 92 27 2.0 7.0 0.00 0.00 0.00 25 1017.8
20210624145905 91 355 2.0 7.0 0.00 0.00 0.00 25 1017.9
20210624145404 91 294 3.0 9.0 0.00 0.00 0.00 25 1017.8
20210624144902 90 350 4.0 9.0 0.00 0.00 0.00 26 1017.9
20210624144405 88 277 5.0 12.0 0.00 0.00 0.00 27 1018.1
20210624143903 88 186 6.0 12.0 0.00 0.00 0.00 28 1018.1
20210624143402 87 171 7.0 12.0 0.00 0.00 0.00 28 1018.1
20210624142902 87 156 7.0 12.0 0.00 0.00 0.00 28 1018.2
20210624142403 88 118 4.0 10.0 0.00 0.00 0.00 27 1018.2
20210624141904 91 109 2.0 5.0 0.00 0.00 0.00 26 1018.3
20210624141403 90 34 3.0 8.0 0.00 0.00 0.00 26 1018.2
20210624140902 90 0 3.0 8.0 0.00 0.00 0.00 26 1018.4
20210624140403 90 351 3.0 6.0 0.00 0.00 0.00 26 1018.3
20210624135904 90 5 3.0 8.0 0.00 0.00 0.00 27 1018.5
20210624135403 87 82 6.0 11.0 0.00 0.00 0.00 28 1018.5
20210624134903 88 0 6.0 11.0 0.00 0.00 0.00 27 1018.5
20210624134406 89 76 3.0 10.0 0.00 0.00 0.00 27 1018.6
20210624133903 89 5 4.0 9.0 0.00 0.00 0.00 27 1018.6
20210624133404 88 344 4.0 9.0 0.00 0.00 0.00 28 1018.7
20210624132906 89 311 3.0 7.0 0.00 0.00 0.00 27 1018.7
20210624132401 89 12 3.0 7.0 0.00 0.00 0.00 28 1018.6
20210624131905 89 261 2.0 5.0 0.00 0.00 0.00 27 1018.7
20210624131405 89 343 2.0 6.0 0.00 0.00 0.00 27 1018.8
20210624130902 88 36 2.0 9.0 0.00 0.00 0.00 27 1018.8
20210624130403 88 350 3.0 9.0 0.00 0.00 0.00 28 1018.8
20210624125903 88 299 3.0 9.0 0.00 0.00 0.00 28 1018.8
20210624125403 87 315 3.0 9.0 0.00 0.00 0.00 29 1019.0
20210624124900 85 207 3.0 10.0 0.00 0.00 0.00 30 1019.0
20210624124403 87 209 4.0 10.0 0.00 0.00 0.00 28 1019.1
20210624123855 88 301 4.0 12.0 0.00 0.00 0.00 29 1018.9
20210624123357 87 343 3.0 12.0 0.00 0.00 0.00 28 1019.0
20210624122857 87 5 3.0 8.0 0.00 0.00 0.00 29 1019.0
20210624122355 87 355 4.0 10.0 0.00 0.00 0.00 29 1019.1
20210624121857 86 342 4.0 10.0 0.00 0.00 0.00 30 1019.1
20210624121356 87 0 3.0 10.0 0.00 0.00 0.00 30 1019.2
20210624120853 85 78 4.0 12.0 0.00 0.00 0.00 31 1019.3
20210624120352 85 39 5.0 12.0 0.00 0.00 0.00 31 1019.3
20210624115852 86 329 4.0 11.0 0.00 0.00 0.00 31 1019.3
20210624115352 87 326 3.0 10.0 0.00 0.00 0.00 30 1019.4
20210624114849 87 310 4.0 10.0 0.00 0.00 0.00 30 1019.4
20210624114351 87 344 3.0 9.0 0.00 0.00 0.00 30 1019.4
20210624113850 85 315 2.0 7.0 0.00 0.00 0.00 31 1019.4
20210624113352 86 329 3.0 10.0 0.00 0.00 0.00 30 1019.5
20210624112850 85 11 4.0 10.0 0.00 0.00 0.00 31 1019.4
20210624112351 83 169 3.0 8.0 0.00 0.00 0.00 34 1019.6
20210624111852 83 128 4.0 9.0 0.00 0.00 0.00 33 1019.5
20210624111348 83 5 4.0 9.0 0.00 0.00 0.00 34 1019.6
20210624110846 82 58 3.0 12.0 0.00 0.00 0.00 34 1019.5
20210624110347 84 67 3.0 12.0 0.00 0.00 0.00 33 1019.5
20210624105842 85 19 4.0 9.0 0.00 0.00 0.00 35 1019.5
20210624105343 83 11 5.0 11.0 0.00 0.00 0.00 37 1019.5
20210624104841 82 38 4.0 11.0 0.00 0.00 0.00 37 1019.5
20210624104343 82 36 4.0 9.0 0.00 0.00 0.00 37 1019.4
20210624103840 82 49 4.0 9.0 0.00 0.00 0.00 37 1019.4
20210624103339 82 11 4.0 10.0 0.00 0.00 0.00 37 1019.4
20210624102840 82 350 4.0 10.0 0.00 0.00 0.00 36 1019.4
20210624102335 82 355 3.0 9.0 0.00 0.00 0.00 36 1019.3
20210624101838 81 355 5.0 10.0 0.00 0.00 0.00 37 1019.3
20210624101337 81 9 5.0 10.0 0.00 0.00 0.00 38 1019.3
20210624100838 81 38 4.0 10.0 0.00 0.00 0.00 38 1019.4
20210624100337 81 44 2.0 9.0 0.00 0.00 0.00 38 1019.3
20210624095835 81 82 2.0 6.0 0.00 0.00 0.00 37 1019.2
20210624095333 80 52 3.0 6.0 0.00 0.00 0.00 37 1019.2
20210624094833 80 5 3.0 5.0 0.00 0.00 0.00 38 1019.3
20210624094333 80 65 3.0 7.0 0.00 0.00 0.00 38 1019.3
20210624093832 80 5 3.0 8.0 0.00 0.00 0.00 38 1019.2
20210624093331 79 89 3.0 8.0 0.00 0.00 0.00 39 1019.3
20210624092833 78 55 2.0 5.0 0.00 0.00 0.00 40 1019.3
20210624092334 78 82 2.0 7.0 0.00 0.00 0.00 40 1019.2
20210624091832 79 43 2.0 7.0 0.00 0.00 0.00 40 1019.3
20210624091333 79 79 2.0 8.0 0.00 0.00 0.00 40 1019.1
20210624090833 77 87 3.0 8.0 0.00 0.00 0.00 42 1019.1
20210624090331 77 81 2.0 6.0 0.00 0.00 0.00 43 1019.2
20210624085831 76 109 3.0 7.0 0.00 0.00 0.00 44 1019.2
20210624085333 76 126 2.0 7.0 0.00 0.00 0.00 44 1019.3
20210624084834 75 93 3.0 8.0 0.00 0.00 0.00 45 1019.2
20210624084333 75 86 3.0 9.0 0.00 0.00 0.00 44 1019.1
20210624083834 74 111 3.0 9.0 0.00 0.00 0.00 46 1019.2
20210624083334 75 88 3.0 7.0 0.00 0.00 0.00 45 1019.2
20210624082832 74 79 3.0 7.0 0.00 0.00 0.00 47 1019.1
20210624082333 74 110 2.0 6.0 0.00 0.00 0.00 47 1019.1
20210624081831 74 79 3.0 7.0 0.00 0.00 0.00 47 1019.1
20210624081331 73 98 4.0 8.0 0.00 0.00 0.00 48 1019.2
20210624080830 73 88 4.0 8.0 0.00 0.00 0.00 49 1019.2
20210624080330 72 74 4.0 7.0 0.00 0.00 0.00 49 1019.1
20210624075833 71 89 4.0 7.0 0.00 0.00 0.00 52 1019.0
20210624075333 71 94 5.0 9.0 0.00 0.00 0.00 53 1019.1
20210624074833 71 77 4.0 9.0 0.00 0.00 0.00 53 1019.3
20210624074333 71 98 3.0 7.0 0.00 0.00 0.00 52 1019.2
20210624073831 70 90 3.0 6.0 0.00 0.00 0.00 53 1019.2
20210624073333 70 72 3.0 7.0 0.00 0.00 0.00 53 1019.1
20210624072832 70 69 3.0 7.0 0.00 0.00 0.00 52 1019.2
20210624072331 69 105 3.0 7.0 0.00 0.00 0.00 53 1019.2
20210624071833 69 90 4.0 7.0 0.00 0.00 0.00 52 1019.0
20210624071333 69 96 4.0 7.0 0.00 0.00 0.00 52 1019.0
20210624070831 69 92 3.0 7.0 0.00 0.00 0.00 51 1019.0
20210624070332 69 82 3.0 5.0 0.00 0.00 0.00 54 1019.0
20210624065830 68 80 1.0 5.0 0.00 0.00 0.00 54 1018.9
20210624065334 68 53 0.0 3.0 0.00 0.00 0.00 56 1018.9
20210624064830 68 281 0.0 2.0 0.00 0.00 0.00 57 1018.8
20210624064332 67 276 0.0 1.0 0.00 0.00 0.00 59 1018.8
20210624063831 67 277 0.0 3.0 0.00 0.00 0.00 59 1018.8
20210624063334 66 277 1.0 3.0 0.00 0.00 0.00 60 1018.9
20210624062836 66 276 1.0 3.0 0.00 0.00 0.00 60 1019.0
20210624062332 66 276 0.0 2.0 0.00 0.00 0.00 60 1018.9
20210624061830 66 272 1.0 4.0 0.00 0.00 0.00 60 1018.8
20210624061331 66 271 0.0 4.0 0.00 0.00 0.00 61 1018.8
20210624060830 65 260 0.0 1.0 0.00 0.00 0.00 62 1018.8
20210624060330 65 260 0.0 1.0 0.00 0.00 0.00 63 1018.7
20210624055830 64 260 0.0 0.0 0.00 0.00 0.00 64 1018.8
20210624055330 63 260 0.0 0.0 0.00 0.00 0.00 65 1018.6
20210624054829 63 260 0.0 0.0 0.00 0.00 0.00 65 1018.7
20210624054331 64 260 0.0 0.0 0.00 0.00 0.00 64 1018.6
20210624053826 63 260 0.0 0.0 0.00 0.00 0.00 65 1018.5
20210624053326 63 260 0.0 0.0 0.00 0.00 0.00 65 1018.5
20210624052824 63 260 0.0 1.0 0.00 0.00 0.00 65 1018.4
20210624052324 63 260 0.0 2.0 0.00 0.00 0.00 65 1018.5
20210624051824 63 260 1.0 3.0 0.00 0.00 0.00 66 1018.4
20210624051325 62 260 1.0 3.0 0.00 0.00 0.00 66 1018.4
20210624050824 63 260 1.0 3.0 0.00 0.00 0.00 66 1018.3
20210624050324 63 260 0.0 0.0 0.00 0.00 0.00 65 1018.3
20210624045825 63 260 0.0 0.0 0.00 0.00 0.00 66 1018.3
20210624045325 63 260 1.0 2.0 0.00 0.00 0.00 66 1018.4
20210624044822 63 260 2.0 2.0 0.00 0.00 0.00 66 1018.4
20210624044324 62 260 2.0 3.0 0.00 0.00 0.00 66 1018.3
20210624043824 63 260 1.0 3.0 0.00 0.00 0.00 65 1018.2
20210624043323 63 260 0.0 3.0 0.00 0.00 0.00 66 1018.3
20210624042826 63 260 0.0 0.0 0.00 0.00 0.00 66 1018.3
20210624042326 63 260 0.0 0.0 0.00 0.00 0.00 67 1018.1
20210624041826 63 260 0.0 0.0 0.00 0.00 0.00 66 1018.3
20210624041322 63 260 0.0 0.0 0.00 0.00 0.00 66 1018.3
20210624040816 63 260 0.0 1.0 0.00 0.00 0.00 66 1018.3
20210624040317 64 260 0.0 2.0 0.00 0.00 0.00 65 1018.2
20210624035816 64 260 1.0 3.0 0.00 0.00 0.00 66 1018.3
20210624035318 63 260 2.0 3.0 0.00 0.00 0.00 65 1018.2
20210624034816 63 260 2.0 3.0 0.00 0.00 0.00 66 1018.2
20210624034317 63 260 2.0 3.0 0.00 0.00 0.00 66 1018.4
20210624033813 63 260 2.0 3.0 0.00 0.00 0.00 66 1018.2